St. Johnsbury, VT

11:42 PM EDT on April 30, 2017 (GMT -0400)
St. Johnsbury

Weather History for K1V4 - May, 2014

Change the Weather History Date:

Wednesday, May 14, 2014

  Actual Average Record
Temperature  
Mean Temperature 62 °F 56 °F  
Max Temperature 76 °F 68 °F 88 °F (1961)
Min Temperature 48 °F 43 °F 24 °F (1902)
Degree Days  
Heating Degree Days 4 10  
Month to date heating degree days 164  
Since 1 July heating degree days 7583  
Cooling Degree Days 0 0  
Month to date cooling degree days 0 0  
Year to date cooling degree days 0 1  
Growing Degree Days 12 (Base 50)    
Moisture  
Dew Point 42 °F    
Average Humidity 55    
Maximum Humidity 77    
Minimum Humidity 33    
Precipitation  
Precipitation 0.01 in 0.10 in 0.94 in (1937)
Month to date precipitation 1.16 1.45  
Year to date precipitation 12.24 11.50  
Sea Level Pressure  
Sea Level Pressure 30.18 in    
Wind  
Wind Speed - (North)    
Max Wind Speed -    
Max Gust Speed -    
T = Trace of Precipitation, MM = Missing Value Source: NWS Daily Summary

Daily Weather History Graph

Daily Weather History Graph

Search for Another Location

Airport or City:

Trip Planner

Search our weather history database for the weather conditions in past years. The results will help you decide how hot, cold, wet, or windy it might be!

Date:

Astronomy

May. 14, 2014 Rise Set
Actual Time 5:21 AM EDT 8:07 PM EDT
Civil Twilight 4:48 AM EDT 8:41 PM EDT
Nautical Twilight 4:05 AM EDT 9:23 PM EDT
Astronomical Twilight 3:16 AM EDT 10:13 PM EDT
Moon 8:08 PM EDT (5/14) 5:20 AM EDT (5/14)
Length of Visible Light 15h 52m
Length of Day
14h 45m
Full, 100% of the Moon is Illuminated
May 14
Full
May 14
Full
May 21
Last Quarter
May 28
New
Jun 5
First Quarter

Hourly Weather History & Observations

Time (EDT) Temp. Dew Point Humidity Pressure Visibility Wind Dir Wind Speed Gust Speed Precip Events Conditions
12:54 AM 52.0 °F 41.0 °F 66% 30.22 in - North - - N/A   Unknown
1:54 AM 51.1 °F 39.9 °F 66% 30.21 in - North - - N/A   Unknown
2:54 AM 52.0 °F 39.0 °F 61% 30.22 in - North - - N/A   Unknown
3:54 AM 48.9 °F 41.0 °F 74% 30.21 in - North - - 0.01 in   Unknown
4:54 AM 48.9 °F 41.0 °F 74% 30.21 in - North - - N/A   Unknown
5:54 AM 50.0 °F 37.0 °F 61% 30.20 in - North - - N/A   Unknown
6:54 AM 51.1 °F 37.0 °F 59% 30.20 in - North - - N/A   Unknown
7:54 AM 52.0 °F 35.1 °F 53% 30.23 in - North - - N/A   Unknown
8:54 AM 54.0 °F 34.0 °F 47% 30.23 in - North - - N/A   Unknown
9:54 AM 55.0 °F 34.0 °F 45% 30.23 in - North - - N/A   Unknown
11:54 AM 63.0 °F 41.0 °F 45% 30.20 in - North - - N/A   Unknown
12:54 PM 66.9 °F 44.1 °F 44% 30.18 in - North - - N/A   Unknown
1:54 PM 72.0 °F 46.0 °F 40% 30.15 in - North - - N/A   Unknown
2:54 PM 73.0 °F 45.0 °F 37% 30.14 in - North - - N/A   Unknown
3:54 PM 73.9 °F 45.0 °F 35% 30.13 in - North - - N/A   Unknown
4:54 PM 75.9 °F 44.1 °F 32% 30.11 in - North - - N/A   Unknown
5:54 PM 75.9 °F 45.0 °F 33% 30.11 in - North - - N/A   Unknown
6:54 PM 75.0 °F 44.1 °F 33% 30.12 in - North - - N/A   Unknown
7:54 PM 72.0 °F 43.0 °F 35% 30.14 in - North - - N/A   Unknown
8:54 PM 69.1 °F 44.1 °F 40% 30.15 in - North - - N/A   Unknown
9:54 PM 66.9 °F 44.1 °F 44% 30.18 in - North - - N/A   Unknown
10:54 PM 64.0 °F 46.0 °F 52% 30.18 in - North - - N/A   Unknown
11:54 PM 62.1 °F 46.0 °F 56% 30.19 in - North - - N/A   Unknown